When you browse on this site, cookies collect data to enhance your experience and personalize the content and advertising you see.
Visit our Privacy Policy to learn more. By continuing to use the site, you agree to this use of cookies and data.
  • In Czech Republic
  • List of Countries
  • For 7 days
  • Water Temperature
  • Satellite Maps
  • Weather Map
  • Weather Widgets
  • user-avatar
    Login

    Hourly Weather Saint-Pierre i Miquelon

    Today, 16 June, Sunday

    Time Temperature Precipitation Wind Pressure Humidity
    00:00 +6°C° 0.1 mm 5 mps 763 mmHg 96%
    01:00 +6°C° 0.1 mm 5 mps 763 mmHg 96%
    02:00 +6°C° 0 mm 4 mps 763 mmHg 93%
    03:00 +6°C° 0 mm 4 mps 763 mmHg 94%
    04:00 +6°C° 0 mm 4 mps 763 mmHg 94%
    05:00 +7°C° 0 mm 3 mps 763 mmHg 95%
    06:00 +7°C° 0 mm 4 mps 763 mmHg 92%
    07:00 +8°C° 0 mm 4 mps 763 mmHg 90%
    08:00 +10°C° 0 mm 4 mps 763 mmHg 87%
    09:00 +11°C° 0 mm 4 mps 763 mmHg 85%
    10:00 +12°C° 0 mm 4 mps 763 mmHg 83%
    11:00 +12°C° 0 mm 5 mps 763 mmHg 81%
    12:00 +12°C° 0 mm 5 mps 763 mmHg 81%
    13:00 +12°C° 0 mm 5 mps 763 mmHg 82%
    14:00 +13°C° 0 mm 4 mps 762 mmHg 82%
    15:00 +12°C° 0 mm 5 mps 762 mmHg 84%
    16:00 +12°C° 0 mm 5 mps 762 mmHg 86%
    17:00 +10°C° 0 mm 5 mps 762 mmHg 88%
    18:00 +10°C° 0 mm 5 mps 762 mmHg 90%
    19:00 +9°C° 0 mm 5 mps 762 mmHg 93%
    20:00 +9°C° 0 mm 5 mps 762 mmHg 95%
    21:00 +8°C° 0 mm 5 mps 762 mmHg 96%
    22:00 +8°C° 0 mm 4 mps 762 mmHg 96%
    23:00 +8°C° 0 mm 4 mps 761 mmHg 97%

    Tomorrow, 17 June, Monday

    Time Temperature Precipitation Wind Pressure Humidity
    00:00 +9°C° 0 mm 3 mps 761 mmHg 96%
    01:00 +9°C° 0 mm 3 mps 761 mmHg 95%
    02:00 +9°C° 0 mm 2 mps 761 mmHg 94%
    03:00 +9°C° 0 mm 2 mps 761 mmHg 94%
    04:00 +10°C° 0 mm 2 mps 761 mmHg 95%
    05:00 +11°C° 0 mm 1 mps 760 mmHg 96%
    06:00 +12°C° 0 mm 1 mps 761 mmHg 94%
    07:00 +13°C° 0 mm 1 mps 761 mmHg 92%
    08:00 +14°C° 0 mm 1 mps 761 mmHg 90%
    09:00 +14°C° 0 mm 1 mps 761 mmHg 87%
    10:00 +15°C° 0 mm 1 mps 760 mmHg 84%
    11:00 +15°C° 0 mm 0 mps 760 mmHg 82%
    12:00 +16°C° 0 mm 1 mps 760 mmHg 79%
    13:00 +17°C° 0 mm 2 mps 760 mmHg 77%
    14:00 +18°C° 0 mm 2 mps 759 mmHg 74%
    15:00 +17°C° 0.2 mm 2 mps 759 mmHg 77%
    16:00 +17°C° 0.2 mm 2 mps 759 mmHg 80%
    17:00 +16°C° 0.2 mm 2 mps 758 mmHg 83%
    18:00 +15°C° 0.8 mm 2 mps 758 mmHg 88%
    19:00 +14°C° 0.8 mm 2 mps 758 mmHg 92%
    20:00 +13°C° 0.8 mm 2 mps 758 mmHg 97%
    21:00 +13°C° 1.3 mm 2 mps 758 mmHg 97%
    22:00 +13°C° 1.3 mm 2 mps 758 mmHg 98%
    23:00 +12°C° 1.3 mm 3 mps 758 mmHg 98%

    Day after tomorrow, 18 June, Tuesday

    Time Temperature Precipitation Wind Pressure Humidity
    00:00 +12°C° 0.5 mm 3 mps 758 mmHg 98%
    01:00 +12°C° 0.5 mm 3 mps 757 mmHg 98%
    02:00 +11°C° 0.5 mm 3 mps 757 mmHg 98%
    03:00 +11°C° 0.1 mm 3 mps 757 mmHg 98%
    04:00 +11°C° 0.1 mm 3 mps 757 mmHg 98%
    05:00 +11°C° 0.1 mm 3 mps 757 mmHg 98%
    06:00 +12°C° 0 mm 3 mps 758 mmHg 95%
    07:00 +13°C° 0 mm 4 mps 758 mmHg 91%
    08:00 +13°C° 0 mm 4 mps 758 mmHg 88%
    09:00 +14°C° 0 mm 5 mps 758 mmHg 82%
    10:00 +16°C° 0 mm 5 mps 758 mmHg 77%
    11:00 +17°C° 0 mm 5 mps 758 mmHg 72%
    12:00 +17°C° 0 mm 6 mps 758 mmHg 71%
    13:00 +16°C° 0 mm 7 mps 758 mmHg 71%
    14:00 +16°C° 0 mm 8 mps 758 mmHg 71%
    15:00 +15°C° 0 mm 8 mps 758 mmHg 70%
    16:00 +15°C° 0 mm 9 mps 758 mmHg 70%
    17:00 +13°C° 0 mm 9 mps 758 mmHg 69%
    18:00 +12°C° 0 mm 9 mps 758 mmHg 70%
    19:00 +11°C° 0 mm 9 mps 758 mmHg 70%
    20:00 +10°C° 0 mm 9 mps 759 mmHg 71%
    21:00 +10°C° 0 mm 9 mps 759 mmHg 73%
    22:00 +9°C° 0 mm 8 mps 759 mmHg 76%
    23:00 +9°C° 0 mm 8 mps 759 mmHg 78%

    19 June, Wednesday

    Time Temperature Precipitation Wind Pressure Humidity
    00:00 +9°C° 0 mm 7 mps 759 mmHg 79%
    01:00 +8°C° 0 mm 7 mps 759 mmHg 81%
    02:00 +8°C° 0 mm 6 mps 759 mmHg 82%
    03:00 +8°C° 0 mm 6 mps 759 mmHg 82%
    04:00 +8°C° 0 mm 5 mps 760 mmHg 82%
    05:00 +8°C° 0 mm 5 mps 760 mmHg 82%
    06:00 +10°C° 0 mm 5 mps 760 mmHg 76%
    07:00 +13°C° 0 mm 4 mps 760 mmHg 70%
    08:00 +14°C° 0 mm 4 mps 760 mmHg 65%
    09:00 +17°C° 0 mm 4 mps 760 mmHg 62%
    10:00 +18°C° 0 mm 4 mps 760 mmHg 60%
    11:00 +19°C° 0 mm 4 mps 760 mmHg 58%
    12:00 +17°C° 0 mm 5 mps 759 mmHg 61%
    13:00 +17°C° 0 mm 6 mps 759 mmHg 65%
    14:00 +17°C° 0 mm 6 mps 759 mmHg 69%
    15:00 +16°C° 0 mm 6 mps 759 mmHg 71%
    16:00 +15°C° 0 mm 6 mps 759 mmHg 73%
    17:00 +15°C° 0 mm 6 mps 759 mmHg 74%
    18:00 +13°C° 0 mm 6 mps 759 mmHg 79%
    19:00 +11°C° 0 mm 6 mps 759 mmHg 83%
    20:00 +10°C° 0 mm 5 mps 760 mmHg 88%
    21:00 +9°C° 0 mm 5 mps 760 mmHg 89%
    22:00 +9°C° 0 mm 5 mps 760 mmHg 89%
    23:00 +9°C° 0 mm 5 mps 760 mmHg 90%

    20 June, Thursday

    Time Temperature Precipitation Wind Pressure Humidity
    00:00 +9°C° 0 mm 5 mps 759 mmHg 90%
    01:00 +10°C° 0 mm 4 mps 759 mmHg 90%
    02:00 +10°C° 0 mm 4 mps 759 mmHg 90%
    03:00 +10°C° 0 mm 4 mps 759 mmHg 88%
    04:00 +10°C° 0 mm 4 mps 759 mmHg 87%
    05:00 +11°C° 0 mm 4 mps 759 mmHg 85%
    06:00 +12°C° 0 mm 4 mps 759 mmHg 81%
    07:00 +14°C° 0 mm 4 mps 759 mmHg 77%
    08:00 +15°C° 0 mm 4 mps 759 mmHg 72%
    09:00 +17°C° 0 mm 4 mps 759 mmHg 73%
    10:00 +18°C° 0 mm 4 mps 758 mmHg 74%
    11:00 +18°C° 0 mm 4 mps 758 mmHg 75%
    12:00 +18°C° 0 mm 4 mps 758 mmHg 76%
    13:00 +18°C° 0 mm 4 mps 757 mmHg 76%
    14:00 +18°C° 0 mm 4 mps 757 mmHg 77%
    15:00 +17°C° 0 mm 4 mps 757 mmHg 77%
    16:00 +15°C° 0 mm 4 mps 756 mmHg 78%
    17:00 +14°C° 0 mm 4 mps 756 mmHg 79%
    18:00 +14°C° 0 mm 4 mps 756 mmHg 83%
    19:00 +13°C° 0 mm 4 mps 755 mmHg 87%
    20:00 +12°C° 0 mm 4 mps 755 mmHg 91%
    21:00 +12°C° 0.1 mm 4 mps 755 mmHg 93%
    22:00 +12°C° 0.1 mm 4 mps 754 mmHg 95%
    23:00 +12°C° 0.1 mm 3 mps 754 mmHg 96%

    21 June, Friday

    Time Temperature Precipitation Wind Pressure Humidity
    00:00 +12°C° 0.1 mm 4 mps 753 mmHg 97%
    01:00 +12°C° 0.1 mm 4 mps 753 mmHg 97%
    02:00 +12°C° 0.1 mm 4 mps 753 mmHg 97%
    03:00 +12°C° 0 mm 5 mps 753 mmHg 97%
    04:00 +10°C° 0 mm 5 mps 753 mmHg 97%
    05:00 +10°C° 0 mm 5 mps 753 mmHg 97%
    06:00 +12°C° 0 mm 5 mps 754 mmHg 94%
    07:00 +11°C° 0 mm 6 mps 754 mmHg 91%
    08:00 +13°C° 0 mm 6 mps 754 mmHg 89%
    09:00 +14°C° 0 mm 6 mps 754 mmHg 82%
    10:00 +16°C° 0 mm 6 mps 754 mmHg 75%
    11:00 +17°C° 0 mm 6 mps 755 mmHg 68%
    12:00 +19°C° 0 mm 6 mps 755 mmHg 67%
    13:00 +19°C° 0 mm 6 mps 755 mmHg 66%
    14:00 +19°C° 0 mm 6 mps 755 mmHg 64%
    15:00 +17°C° 0 mm 6 mps 755 mmHg 68%
    16:00 +16°C° 0 mm 6 mps 755 mmHg 71%
    17:00 +16°C° 0 mm 6 mps 756 mmHg 74%
    18:00 +14°C° 0 mm 5 mps 756 mmHg 78%
    19:00 +13°C° 0 mm 5 mps 757 mmHg 82%
    20:00 +12°C° 0 mm 5 mps 757 mmHg 86%
    21:00 +12°C° 0 mm 4 mps 757 mmHg 85%
    22:00 +12°C° 0 mm 4 mps 757 mmHg 84%
    23:00 +12°C° 0 mm 3 mps 758 mmHg 83%
    Show more